星链-37826(STARLINK-37826)

导读

STARLINK-37826(NORAD编号100050)是美国SpaceX公司星链第三代星座的通信卫星,属于星链V3系列,于2026年3月22日搭乘猎鹰9号火箭从卡纳维拉尔角发射,执行Starlink Group 10-62组网任务,单星干重约2000-2500公斤,下行链路容量最高达1Tbps,目前运行在倾角53.03°、高度约248公里的近地轨道,主要为全球提供高速低延迟卫星互联网服务,是星链第三代超大规模星座组网的重要组成节点。

基本信息
目录编号:
100050
目录名称:
STARLINK-37826
国际标识:
2026-161Y
轨道中心:
EARTH
卫星名称:
星链-37826
卫星全名:
星链-37826(STARLINK-37826)
卫星状态:
在轨 (已飞行59 天)
发射日期:
2026-07-14 UTC
国别 :
美国 (US)
星等 :
--
轨道信息
数据来源 国际轨道数据
星历时间: 2026-09-11T00:29:07+0800
12小时前
查看轨道信息
半长轴: 6840.827km
偏心率: 0.0001406
轨道倾角: 53.161°
近地点辐角 85.034°
升交点赤经 43.599°
平近点角 275.082°
近地点: 461.728km
远地点: 463.652km
周期: 93.847分钟
每日圈数: 15.344045
详细信息
固有亮度:
5
最大亮度:
2.5
卫星平台:
Starlink V1.0
覆盖范围:
全球
运营商:
太空探索技术公司
运营商所在国:
美国
制造商(研发单位):
太空探索技术公司
制造商所在国:
美国
使用方式:
暂无
卫星简介
Starlink 计划是 SpaceX 推出的全球卫星互联网项目,通过发射低轨道卫星,为全球尤其是偏远地区提供高速、低延迟的互联网服务。自 2019 年起,Starlink 已部署数千颗卫星,旨在缩小全球数字鸿沟,推动互联网普及。该项目还为军事、航空等行业提供通信支持,带来广泛经济效益。
2D轨道图
3D轨道图
轨道高度分析图
轨道倾角分析图
轨道综合分析图
查看轨道综合分析图
与全量物体交会距离演化趋势
与全量物体交会风险概率演化趋势